Time,TemperatureF,DewpointF,PressureIn,WindDirection,WindDirectionDegrees,WindSpeedMPH,WindSpeedGustMPH,Humidity,HourlyPrecipIn,Conditions,Clouds,dailyrainin,SoftwareType,DateUTC
2013-09-23 00:00:00,48.5,44.2,30.04,East,98,0.0,2.0,85,0.00,,---,0.00,VWS V14.01,2013-09-23 04:00:00,
2013-09-23 00:30:00,47.5,43.8,30.05,East,96,0.0,2.0,87,0.00,,---,0.00,VWS V14.01,2013-09-23 04:30:00,
2013-09-23 01:00:00,46.1,43.3,30.05,East,96,0.0,1.0,90,0.00,,---,0.00,VWS V14.01,2013-09-23 05:00:00,
2013-09-23 01:30:00,45.6,43.4,30.06,East,96,0.0,1.0,92,0.00,,---,0.00,VWS V14.01,2013-09-23 05:30:00,
2013-09-23 02:00:00,44.9,42.7,30.06,East,96,0.0,1.0,92,0.00,,---,0.00,VWS V14.01,2013-09-23 06:00:00,
2013-09-23 02:30:00,44.6,42.7,30.07,East,96,0.0,0.0,93,0.00,,---,0.00,VWS V14.01,2013-09-23 06:30:00,
2013-09-23 03:00:00,44.2,42.6,30.07,East,96,0.0,1.0,94,0.00,,---,0.00,VWS V14.01,2013-09-23 07:00:00,
2013-09-23 03:30:00,43.8,42.2,30.06,East,96,0.0,0.0,94,0.00,,---,0.00,VWS V14.01,2013-09-23 07:30:00,
2013-09-23 04:00:00,43.3,41.7,30.06,East,96,0.0,0.0,94,0.00,,---,0.00,VWS V14.01,2013-09-23 08:00:00,
2013-09-23 04:30:00,43.0,41.7,30.06,East,96,0.0,0.0,95,0.00,,---,0.00,VWS V14.01,2013-09-23 08:30:00,
2013-09-23 05:00:00,42.2,40.9,30.07,East,96,0.0,0.0,95,0.00,,---,0.00,VWS V14.01,2013-09-23 09:00:00,
2013-09-23 05:30:00,41.8,40.5,30.07,East,96,0.0,0.0,95,0.00,,---,0.00,VWS V14.01,2013-09-23 09:30:00,
2013-09-23 06:00:00,41.9,40.8,30.07,East,96,0.0,0.0,96,0.00,,---,0.00,VWS V14.01,2013-09-23 10:00:00,
2013-09-23 06:30:00,41.9,40.8,30.08,East,96,0.0,0.0,96,0.00,,---,0.00,VWS V14.01,2013-09-23 10:30:00,
2013-09-23 07:00:00,42.0,40.9,30.09,East,96,0.0,0.0,96,0.00,,---,0.00,VWS V14.01,2013-09-23 11:00:00,
2013-09-23 07:30:00,42.2,41.1,30.10,East,96,0.0,1.0,96,0.00,,---,0.00,VWS V14.01,2013-09-23 11:30:00,
2013-09-23 08:00:00,42.1,41.0,30.12,East,96,0.0,0.0,96,0.00,,---,0.00,VWS V14.01,2013-09-23 12:00:00,
2013-09-23 08:30:00,43.5,42.4,30.12,East,91,1.0,2.0,96,0.00,,---,0.00,VWS V14.01,2013-09-23 12:30:00,
2013-09-23 09:00:00,45.9,44.3,30.12,ESE,108,0.0,3.0,94,0.00,,---,0.00,VWS V14.01,2013-09-23 13:00:00,
2013-09-23 09:30:00,48.8,46.0,30.12,East,88,2.0,3.0,90,0.00,,---,0.00,VWS V14.01,2013-09-23 13:30:00,
2013-09-23 10:00:00,51.9,47.2,30.13,ESE,113,2.0,5.0,84,0.00,,---,0.00,VWS V14.01,2013-09-23 14:00:00,
2013-09-23 10:30:00,54.4,47.7,30.13,ESE,113,5.0,5.0,78,0.00,,---,0.00,VWS V14.01,2013-09-23 14:30:00,
2013-09-23 11:00:00,56.3,47.4,30.13,SE,132,2.0,6.0,72,0.00,,---,0.00,VWS V14.01,2013-09-23 15:00:00,
2013-09-23 11:30:00,57.5,47.8,30.13,ESE,118,3.0,5.0,70,0.00,,---,0.00,VWS V14.01,2013-09-23 15:30:00,
2013-09-23 12:00:00,59.1,48.6,30.13,East,82,3.0,6.0,68,0.00,,---,0.00,VWS V14.01,2013-09-23 16:00:00,
2013-09-23 12:30:00,60.7,48.5,30.12,East,87,1.0,5.0,64,0.00,,---,0.00,VWS V14.01,2013-09-23 16:30:00,
2013-09-23 13:00:00,62.4,47.9,30.12,SE,127,1.0,5.0,59,0.00,,---,0.00,VWS V14.01,2013-09-23 17:00:00,
2013-09-23 13:30:00,64.6,48.6,30.12,East,100,1.0,4.0,56,0.00,,---,0.00,VWS V14.01,2013-09-23 17:30:00,
2013-09-23 14:00:00,66.0,48.4,30.11,ESE,122,0.0,6.0,53,0.00,,---,0.00,VWS V14.01,2013-09-23 18:00:00,
2013-09-23 14:30:00,65.8,49.2,30.10,SE,125,1.0,6.0,55,0.00,,---,0.00,VWS V14.01,2013-09-23 18:30:00,
2013-09-23 15:00:00,66.9,51.7,30.09,ENE,75,0.0,6.0,58,0.00,,---,0.00,VWS V14.01,2013-09-23 19:00:00,
2013-09-23 15:30:00,67.8,49.5,30.08,East,95,3.0,7.0,52,0.00,,---,0.00,VWS V14.01,2013-09-23 19:30:00,
2013-09-23 16:00:00,67.4,50.2,30.07,SE,124,1.0,5.0,54,0.00,,---,0.00,VWS V14.01,2013-09-23 20:00:00,
2013-09-23 16:30:00,68.3,50.0,30.07,ESE,107,3.0,5.0,52,0.00,,---,0.00,VWS V14.01,2013-09-23 20:30:00,
2013-09-23 17:00:00,68.4,50.6,30.06,East,89,2.0,5.0,53,0.00,,---,0.00,VWS V14.01,2013-09-23 21:00:00,
2013-09-23 17:30:00,68.7,51.4,30.06,ESE,107,2.0,5.0,54,0.00,,---,0.00,VWS V14.01,2013-09-23 21:30:00,
2013-09-23 18:00:00,68.3,50.5,30.06,East,84,1.0,5.0,53,0.00,,---,0.00,VWS V14.01,2013-09-23 22:00:00,
2013-09-23 18:30:00,67.2,50.5,30.06,ESE,105,1.0,5.0,55,0.00,,---,0.00,VWS V14.01,2013-09-23 22:30:00,
2013-09-23 19:00:00,66.7,50.0,30.06,East,88,2.0,3.0,55,0.00,,---,0.00,VWS V14.01,2013-09-23 23:00:00,
2013-09-23 19:30:00,64.7,50.1,30.06,East,96,2.0,3.0,59,0.00,,---,0.00,VWS V14.01,2013-09-23 23:30:00,
2013-09-23 20:00:00,59.0,50.0,30.06,ESE,110,0.0,2.0,72,0.00,,---,0.00,VWS V14.01,2013-09-24 00:00:00,
2013-09-23 20:30:00,56.0,49.9,30.07,ESE,110,0.0,1.0,80,0.00,,---,0.00,VWS V14.01,2013-09-24 00:30:00,
2013-09-23 21:00:00,54.5,49.1,30.08,ESE,118,1.0,2.0,82,0.00,,---,0.00,VWS V14.01,2013-09-24 01:00:00,
2013-09-23 21:30:00,55.7,48.3,30.08,ESE,104,2.0,4.0,76,0.00,,---,0.00,VWS V14.01,2013-09-24 01:30:00,
2013-09-23 22:00:00,54.9,47.8,30.08,ESE,110,1.0,3.0,77,0.00,,---,0.00,VWS V14.01,2013-09-24 02:00:00,
2013-09-23 22:30:00,54.0,47.3,30.08,East,92,1.0,4.0,78,0.00,,---,0.00,VWS V14.01,2013-09-24 02:30:00,
2013-09-23 23:00:00,53.2,47.2,30.08,East,98,2.0,3.0,80,0.00,,---,0.00,VWS V14.01,2013-09-24 03:00:00,
2013-09-23 23:30:00,52.8,46.8,30.08,ESE,114,1.0,3.0,80,0.00,,---,0.00,VWS V14.01,2013-09-24 03:30:00,